Weather History for Limon, CO

Change the Weather History Date:

Saturday, February 9, 2013

  Actual Average Record
Temperature  
Mean Temperature 32 °F -  
Max Temperature 43 °F - 60 °F (2006)
Min Temperature 21 °F - -17 °F (2011)
Degree Days  
Heating Degree Days 33    
Month to date heating degree days 286  
Cooling Degree Days 0    
Month to date cooling degree days 0  
Moisture  
Dew Point 21 °F    
Average Humidity 71    
Maximum Humidity 86    
Minimum Humidity 41    
Precipitation  
Precipitation T in - 0.62 in (2002)
Month to date precipitation T  
Year to date precipitation 0.29  
Sea Level Pressure  
Sea Level Pressure 29.55 in    
Wind  
Wind Speed 12 mph (NW)    
Max Wind Speed 31 mph    
Max Gust Speed 40 mph    
Visibility 10 miles    
Events      
T = Trace of Precipitation, MM = Missing Value Source: NWS Daily Summary

Daily Weather History Graph

Daily Weather History Graph

Search for Another Location

Airport:

Trip Planner

Search our weather history database for the weather conditions in past years. The results will help you decide how hot, cold, wet, or windy it might be!

Date:

Astronomy

Feb. 09, 2013 Rise Set
Actual Time 6:53 AM MST 5:25 PM MST
Civil Twilight 6:25 AM MST 5:52 PM MST
Nautical Twilight 5:53 AM MST 6:24 PM MST
Astronomical Twilight 5:22 AM MST 6:55 PM MST
Moon 6:06 AM MST (2/9) 5:10 PM MST (2/9)
Length of Visible Light 11h 27m
Length of Day
10h 31m
Waning Crescent, 0% of the Moon is Illuminated
Feb 9
Waning Crescent
Feb 10
New
Feb 17
First Quarter
Feb 25
Full
Mar 4
Last Quarter

Hourly Weather History & Observations

Time (MST) Temp. Windchill Dew Point Humidity Pressure Visibility Wind Dir Wind Speed Gust Speed Precip Events Conditions
12:55 AM 28.9 °F 22.8 °F 21.0 °F 72% 29.70 in 10.0 mi SSE 5.8 mph - N/A   Clear
1:55 AM 30.9 °F 21.7 °F 23.0 °F 72% 29.66 in 10.0 mi South 11.5 mph - N/A   Clear
2:55 AM 26.1 °F 16.2 °F 19.9 °F 78% 29.65 in 10.0 mi SE 10.4 mph - N/A   Clear
3:55 AM 30.0 °F 21.1 °F 21.9 °F 72% 29.62 in 10.0 mi South 10.4 mph - N/A   Clear
4:55 AM 30.0 °F 19.5 °F 21.9 °F 72% 29.61 in 10.0 mi South 13.8 mph 19.6 mph N/A   Clear
5:55 AM 28.0 °F 18.6 °F 21.0 °F 75% 29.63 in 10.0 mi South 10.4 mph 23.0 mph N/A   Clear
6:55 AM 21.0 °F - 17.1 °F 85% 29.69 in 10.0 mi Calm Calm - N/A   Clear
7:55 AM 27.0 °F 23.0 °F 21.0 °F 78% 29.68 in 10.0 mi NE 3.5 mph - N/A   Clear
8:18 AM 24.8 °F 12.4 °F 17.6 °F 74% 29.66 in 10.0 mi WNW 15.0 mph - N/A   Clear
8:55 AM 28.0 °F 18.6 °F 18.0 °F 66% 29.67 in 10.0 mi WNW 10.4 mph - N/A   Clear
9:55 AM 33.1 °F 25.5 °F 19.9 °F 59% 29.62 in 10.0 mi WNW 9.2 mph - N/A   Clear
10:55 AM 37.0 °F 32.4 °F 19.9 °F 50% 29.56 in 10.0 mi NNW 5.8 mph - N/A   Clear
11:55 AM 39.0 °F - 21.0 °F 49% 29.51 in 10.0 mi Calm Calm - N/A   Clear
12:55 PM 39.9 °F 37.8 °F 19.9 °F 45% 29.49 in 10.0 mi SSW 3.5 mph - N/A   Clear
1:55 PM 42.1 °F 39.2 °F 19.9 °F 41% 29.45 in 10.0 mi NW 4.6 mph - N/A   Partly Cloudy
2:55 PM 37.0 °F 28.5 °F 21.0 °F 52% 29.47 in 10.0 mi NNW 13.8 mph 25.3 mph N/A   Overcast
3:55 PM 35.1 °F 23.5 °F 21.0 °F 57% 29.49 in 10.0 mi NW 21.9 mph - 0.00 in   Overcast
4:55 PM 33.1 °F 20.9 °F 21.9 °F 64% 29.48 in 10.0 mi NNW 21.9 mph 31.1 mph N/A   Mostly Cloudy
5:55 PM 30.0 °F 20.5 °F 23.0 °F 75% 29.49 in 10.0 mi North 11.5 mph - N/A   Clear
6:55 PM 28.0 °F 16.1 °F 21.9 °F 78% 29.52 in 10.0 mi NNW 16.1 mph 23.0 mph N/A   Partly Cloudy
7:34 PM 26.6 °F 13.8 °F 21.2 °F 80% 29.47 in 10.0 mi North 17.3 mph - N/A   Mostly Cloudy
7:55 PM 27.0 °F 14.3 °F 21.0 °F 78% 29.51 in 10.0 mi NNW 17.3 mph - N/A   Overcast
8:43 PM 28.4 °F 14.4 °F 21.2 °F 74% 29.46 in 10.0 mi NNW 23.0 mph 29.9 mph N/A   Scattered Clouds
8:55 PM 27.0 °F 12.5 °F 21.9 °F 81% 29.50 in 10.0 mi NNW 23.0 mph 29.9 mph N/A   Scattered Clouds
9:35 PM 26.6 °F 11.7 °F 21.2 °F 80% 29.47 in 10.0 mi NNW 24.2 mph 33.4 mph N/A   Overcast
9:55 PM 25.0 °F 10.2 °F 21.0 °F 85% 29.51 in 10.0 mi NNW 21.9 mph 27.6 mph N/A   Mostly Cloudy
10:11 PM 24.8 °F 9.6 °F 19.4 °F 80% 29.47 in 10.0 mi NNW 23.0 mph 33.4 mph N/A   Scattered Clouds
10:52 PM 24.8 °F 8.4 °F 19.4 °F 80% 29.47 in 10.0 mi NW 27.6 mph 40.3 mph N/A   Mostly Cloudy
10:55 PM 24.1 °F 6.6 °F 19.0 °F 81% 29.49 in 10.0 mi NW 31.1 mph 40.3 mph N/A   Mostly Cloudy
11:02 PM 23.0 °F 6.0 °F 19.4 °F 86% 29.47 in 10.0 mi NW 27.6 mph 38.0 mph N/A   Mostly Cloudy
11:55 PM 25.0 °F 8.4 °F 19.0 °F 78% 29.50 in 10.0 mi NW 28.8 mph 36.8 mph N/A   Overcast